Погода в Тетюшах

Россия / Республика Мордовия     54°34′25″N   46°02′09″E
темп.,
°C
ветер,
м/с
пор.,
м/с
влажн.,
%
обл.,
%
осадки,
мм/ч
давл.,
гПа
погр.,
м
4 марта, чт
чт400:00−7зюз6129571 0.1 1008305
03:00−4зюз7139485 0.4 1006590
06:00−2зюз71395100 0.7 1003727
09:00−2зюз91594100 1.1 1000841
12:000зюз101694100 1.0 9981069
15:000зюз101694100 1.1 997966
18:00−1з81596100 1.1 998821
21:00−2сз4989100 2.9 999457
5 марта, пт
пт500:00−4з3597100 0.4 999187
03:00−4сз2497100 1.1 1000149
06:00−7ссз3397100 0.3 100283
09:00−8ссз259597 0.4 1004199
12:00−7сз23893 0.0 1006288
15:00−6з349021 0.0 1008434
18:00−10зюз239212 0.0 100921
21:00−10юз34957 0.0 101150
6 марта, сб
сб600:00−9зюз489690 0.1 1012197
03:00−12з469894 0.2 101390
06:00−13зсз349898 0.1 101358
09:00−13сз479485 0.1 1014266
12:00−11сз459183 0.0 1015456
15:00−11сз468792 0.1 1014667
18:00−15зсз339246 0.0 101523
21:00−17з339526 0.0 101624
7 марта, вс
вс700:00−17з34950 0.0 101648
03:00−17юз34960 0.0 101571
06:00−17ююз479624 0.0 1014116
09:00−12ююз6129455 0.1 1011360
12:00−8юз81384100 0.0 1008753
15:00−7ююз101692100 0.3 1005930
18:00−6ююз101893100 0.8 10001179
21:00−5юз101793100 1.8 9971057
8 марта, пн
пн800:00−7зсз81292100 1.4 997935
03:00−11зюз6138778 1.6 1001270
06:00−14юз512840 0.0 1002204
09:00−11ююз614790 0.0 1000355
12:00−6ююз712734 0.0 998789
15:00−6з9138451 1.0 9981170
18:00−10зсз81491100 0.3 1001954
21:00−10з8159199 0.5 1004669